FW3636 Weather Reports


time (UTC)temp
C
wind
direction
speed
KPH
gust
KPH
rain 1hr
cm
rain 24hr
cm
rain mn
cm
humidity
%
barometer
mb
20260508065503 13 255 4.8 11.3 0.00 0.00 0.00 20 1017.4
20260508065024 13 255 4.8 11.3 0.00 0.00 0.00 19 1017.1
20260508064503 13 254 3.2 9.7 0.00 0.00 0.00 20 1017.3
20260508064003 14 254 3.2 9.7 0.00 0.00 0.00 18 1017.3
20260508063503 14 254 3.2 9.7 0.00 0.00 0.00 18 1017.4
20260508063024 14 254 3.2 9.7 0.00 0.00 0.00 18 1017.1
20260508062503 15 254 3.2 4.8 0.00 0.00 0.00 17 1017.4
20260508062003 13 255 4.8 4.8 0.00 0.00 0.00 19 1017.1
20260508061503 13 255 4.8 4.8 0.00 0.00 0.00 19 1017.3
20260508061003 13 255 4.8 6.4 0.00 0.00 0.00 19 1017.1
20260508060524 13 255 4.8 6.4 0.00 0.00 0.00 18 1017.5
20260508060003 14 254 6.4 11.3 0.00 0.00 0.00 18 1017.5
20260508055503 13 247 6.4 11.3 0.00 0.00 0.00 19 1017.4
20260508055003 13 249 6.4 11.3 0.00 0.00 0.00 18 1017.3
20260508054503 15 256 8.0 11.3 0.00 0.00 0.00 17 1017.3
20260508054003 15 256 8.0 11.3 0.00 0.00 0.00 16 1017.1
20260508053503 16 256 8.0 11.3 0.00 0.00 0.00 16 1017.1
20260508053024 16 256 8.0 9.7 0.00 0.00 0.00 16 1016.9
20260508052503 16 256 8.0 11.3 0.00 0.00 0.00 16 1017.1
20260508052003 16 256 8.0 11.3 0.00 0.00 0.00 16 1017.1
20260508051503 15 256 8.0 11.3 0.00 0.00 0.00 16 1017.1
20260508051003 15 256 9.7 11.3 0.00 0.00 0.00 16 1017.0
20260508050503 15 255 8.0 11.3 0.00 0.00 0.00 16 1017.0
20260508050003 15 255 6.4 9.7 0.00 0.00 0.00 17 1017.0
20260508045524 16 255 6.4 11.3 0.00 0.00 0.00 17 1017.3
20260508045003 15 255 8.0 12.9 0.00 0.00 0.00 17 1017.3
20260508044503 15 255 9.7 12.9 0.00 0.00 0.00 17 1016.9
20260508044003 15 260 8.0 12.9 0.00 0.00 0.00 17 1017.1
20260508043524 15 268 6.4 12.9 0.00 0.00 0.00 16 1017.0
20260508043025 15 269 6.4 9.7 0.00 0.00 0.00 16 1016.9
20260508042503 15 269 6.4 9.7 0.00 0.00 0.00 16 1017.0
20260508042004 15 269 8.0 9.7 0.00 0.00 0.00 16 1017.0
20260508041504 15 269 6.4 9.7 0.00 0.00 0.00 16 1016.9
20260508041003 15 269 6.4 9.7 0.00 0.00 0.00 16 1016.8
20260508040503 16 269 6.4 9.7 0.00 0.00 0.00 15 1016.9
20260508040003 16 269 6.4 9.7 0.00 0.00 0.00 14 1016.9
20260508035503 16 269 6.4 9.7 0.00 0.00 0.00 15 1017.0
20260508035003 15 269 6.4 9.7 0.00 0.00 0.00 16 1016.9
20260508034503 15 269 8.0 9.7 0.00 0.00 0.00 16 1016.9
20260508034003 15 269 8.0 11.3 0.00 0.00 0.00 16 1016.8
20260508033503 15 269 8.0 11.3 0.00 0.00 0.00 16 1016.9
20260508033003 16 269 8.0 11.3 0.00 0.00 0.00 15 1016.7
20260508032503 17 268 8.0 11.3 0.00 0.00 0.00 14 1016.4
20260508032003 17 267 8.0 11.3 0.00 0.00 0.00 13 1016.4
20260508031524 17 267 9.7 11.3 0.00 0.00 0.00 13 1016.4
20260508031003 17 266 8.0 11.3 0.00 0.00 0.00 12 1016.2
20260508030524 17 265 8.0 11.3 0.00 0.00 0.00 12 1016.1
20260508030003 17 265 6.4 9.7 0.00 0.00 0.00 12 1016.1
20260508025503 18 265 6.4 6.4 0.00 0.00 0.00 12 1016.1
20260508025003 18 265 4.8 6.4 0.00 0.00 0.00 12 1015.8
20260508024503 18 264 3.2 4.8 0.00 0.00 0.00 11 1016.1
20260508024024 19 264 1.6 3.2 0.00 0.00 0.00 11 1015.8
20260508023503 20 264 3.2 4.8 0.00 0.00 0.00 11 1015.5
20260508023003 20 264 3.2 4.8 0.00 0.00 0.00 10 1015.5
20260508022524 20 264 3.2 3.2 0.00 0.00 0.00 10 1015.6
20260508022003 20 264 1.6 3.2 0.00 0.00 0.00 11 1015.7
20260508021503 20 264 1.6 6.4 0.00 0.00 0.00 11 1015.4
20260508021003 21 264 1.6 9.7 0.00 0.00 0.00 10 1015.4
20260508020503 21 264 1.6 9.7 0.00 0.00 0.00 12 1015.6
20260508020003 21 263 1.6 4.8 0.00 0.00 0.00 12 1015.4
20260508015503 21 263 1.6 3.2 0.00 0.00 0.00 15 1015.4
20260508015003 22 263 1.6 4.8 0.00 0.00 0.00 13 1015.4
20260508014503 22 263 3.2 4.8 0.00 0.00 0.00 13 1015.5
20260508014003 23 261 3.2 4.8 0.00 0.00 0.00 13 1015.3
20260508013503 23 258 3.2 6.4 0.00 0.00 0.00 12 1015.0
20260508013003 23 246 4.8 9.7 0.00 0.00 0.00 13 1015.1
20260508012503 23 228 6.4 11.3 0.00 0.00 0.00 13 1015.0
20260508012004 23 232 8.0 12.9 0.00 0.00 0.00 12 1014.7
20260508011503 23 241 8.0 12.9 0.00 0.00 0.00 12 1014.9
20260508011024 23 235 8.0 14.5 0.00 0.00 0.00 12 1014.9
20260508010503 23 234 8.0 14.5 0.00 0.00 0.00 12 1014.7
20260508010003 23 240 4.8 12.9 0.00 0.00 0.00 12 1014.8
20260508005503 23 204 6.4 12.9 0.00 0.00 0.00 12 1014.6
20260508005003 23 171 8.0 14.5 0.00 0.00 0.00 13 1014.7
20260508004503 23 176 9.7 17.7 0.00 0.00 0.00 13 1014.8
20260508004024 23 180 11.3 17.7 0.00 0.00 0.00 13 1014.6
20260508003503 24 166 11.3 20.9 0.00 0.00 0.00 13 1014.7
20260508003003 23 164 9.7 20.9 0.00 0.00 0.00 13 1014.8
20260508002525 24 177 11.3 22.5 0.00 0.00 0.00 13 1014.8
20260508002003 23 175 11.3 22.5 0.00 0.00 0.00 13 1014.7
20260508001503 24 186 8.0 16.1 0.00 0.00 0.00 13 1014.7
20260508001003 24 232 8.0 16.1 0.00 0.00 0.00 12 1014.6
20260508000524 24 261 8.0 16.1 0.00 0.00 0.00 12 1014.7
20260508000003 25 283 3.2 9.7 0.00 0.00 0.00 11 1014.8
20260507235504 25 231 4.8 12.9 0.00 0.00 0.00 11 1015.0
20260507235003 24 189 6.4 12.9 0.00 0.00 0.00 12 1014.9
20260507234504 24 204 4.8 12.9 0.00 0.00 0.00 10 1014.9
20260507234003 25 249 3.2 12.9 0.00 0.00 0.00 11 1015.0
20260507233503 24 214 4.8 12.9 0.00 0.00 0.00 11 1015.1
20260507233024 24 195 8.0 12.9 0.00 0.00 0.00 10 1015.0
20260507232503 24 178 8.0 16.1 0.00 0.00 0.00 10 1015.0
20260507232003 24 184 9.7 16.1 0.00 0.00 0.00 12 1015.3
20260507231503 24 199 11.3 27.4 0.00 0.00 0.00 12 1015.3
20260507231003 24 195 11.3 27.4 0.00 0.00 0.00 12 1015.1
20260507230503 24 181 9.7 27.4 0.00 0.00 0.00 11 1015.0
20260507230004 24 189 9.7 17.7 0.00 0.00 0.00 12 1015.4
20260507225524 23 192 9.7 17.7 0.00 0.00 0.00 12 1015.4
20260507225003 24 186 8.0 16.1 0.00 0.00 0.00 12 1015.6
20260507224503 25 182 6.4 14.5 0.00 0.00 0.00 12 1015.5
20260507224003 23 170 8.0 16.1 0.00 0.00 0.00 11 1015.5
20260507223504 24 163 8.0 16.1 0.00 0.00 0.00 12 1015.7
20260507223003 23 169 8.0 22.5 0.00 0.00 0.00 12 1015.7
20260507222504 25 162 6.4 22.5 0.00 0.00 0.00 12 1015.6
20260507222003 24 174 4.8 12.9 0.00 0.00 0.00 11 1015.8
20260507221503 24 185 4.8 12.9 0.00 0.00 0.00 11 1016.0
20260507221003 25 190 4.8 24.1 0.00 0.00 0.00 11 1015.8
20260507220503 23 193 8.0 24.1 0.00 0.00 0.00 12 1016.1
20260507220003 23 172 9.7 17.7 0.00 0.00 0.00 12 1016.1
20260507215503 24 150 9.7 25.7 0.00 0.00 0.00 12 1016.3
20260507215003 23 165 12.9 25.7 0.00 0.00 0.00 14 1016.3
20260507214524 23 174 11.3 24.1 0.00 0.00 0.00 12 1016.4
20260507214004 23 182 8.0 17.7 0.00 0.00 0.00 12 1016.4
20260507213503 23 176 9.7 22.5 0.00 0.00 0.00 13 1016.7
20260507213024 23 152 8.0 22.5 0.00 0.00 0.00 13 1016.8
20260507212503 23 131 6.4 16.1 0.00 0.00 0.00 14 1017.0
20260507212003 23 158 8.0 17.7 0.00 0.00 0.00 15 1017.0
20260507211503 23 167 8.0 17.7 0.00 0.00 0.00 15 1017.1
20260507211003 22 159 6.4 17.7 0.00 0.00 0.00 15 1017.4
20260507210503 22 165 8.0 17.7 0.00 0.00 0.00 16 1017.6
20260507210003 22 178 8.0 17.7 0.00 0.00 0.00 16 1017.6
20260507205504 23 164 4.8 17.7 0.00 0.00 0.00 14 1017.5
20260507205004 22 173 3.2 6.4 0.00 0.00 0.00 17 1017.7
20260507204503 22 180 3.2 11.3 0.00 0.00 0.00 16 1017.8
20260507204003 22 132 3.2 12.9 0.00 0.00 0.00 17 1018.0
20260507203503 22 131 4.8 12.9 0.00 0.00 0.00 17 1018.1
20260507203003 22 142 8.0 20.9 0.00 0.00 0.00 16 1017.8
20260507202503 21 154 9.7 20.9 0.00 0.00 0.00 17 1018.1
20260507202003 21 152 9.7 20.9 0.00 0.00 0.00 19 1018.3
20260507201503 21 157 9.7 20.9 0.00 0.00 0.00 17 1018.3
20260507201003 21 180 9.7 20.9 0.00 0.00 0.00 19 1018.5
20260507200503 21 180 9.7 20.9 0.00 0.00 0.00 19 1018.7
20260507200003 21 161 6.4 16.1 0.00 0.00 0.00 20 1018.5
20260507195503 22 116 4.8 16.1 0.00 0.00 0.00 19 1018.9
20260507195004 21 140 8.0 14.5 0.00 0.00 0.00 20 1018.9
20260507194503 20 158 8.0 17.7 0.00 0.00 0.00 20 1019.0
20260507194003 20 139 6.4 17.7 0.00 0.00 0.00 20 1018.9
20260507193524 21 38 3.2 11.3 0.00 0.00 0.00 19 1019.1
20260507193003 20 332 3.2 11.3 0.00 0.00 0.00 19 1019.1
20260507192503 20 275 3.2 11.3 0.00 0.00 0.00 20 1019.2
20260507192003 20 206 4.8 16.1 0.00 0.00 0.00 20 1019.4
20260507191504 19 219 6.4 16.1 0.00 0.00 0.00 21 1019.6
20260507191003 19 206 6.4 14.5 0.00 0.00 0.00 22 1019.6
20260507190504 20 194 6.4 14.5 0.00 0.00 0.00 21 1019.7
20260507190005 19 198 6.4 12.9 0.00 0.00 0.00 22 1019.9
20260507185524 19 209 6.4 14.5 0.00 0.00 0.00 22 1019.8
20260507185003 18 258 8.0 17.7 0.00 0.00 0.00 23 1019.8
20260507184504 18 248 8.0 14.5 0.00 0.00 0.00 23 1020.2
20260507184024 18 246 6.4 16.1 0.00 0.00 0.00 23 1020.2
20260507183503 17 280 8.0 16.1 0.00 0.00 0.00 24 1020.3
20260507183003 18 305 8.0 14.5 0.00 0.00 0.00 23 1020.5
20260507182503 17 334 6.4 14.5 0.00 0.00 0.00 24 1020.4
20260507182003 17 331 3.2 6.4 0.00 0.00 0.00 24 1020.5
20260507181503 17 333 3.2 11.3 0.00 0.00 0.00 24 1020.6
20260507181003 17 57 3.2 11.3 0.00 0.00 0.00 25 1020.9
20260507180503 17 76 3.2 11.3 0.00 0.00 0.00 25 1020.9
20260507180003 18 89 3.2 11.3 0.00 0.00 0.00 25 1021.0
20260507175503 18 105 3.2 9.7 0.00 0.00 0.00 25 1021.1
20260507175003 17 15 3.2 9.7 0.00 0.00 0.00 25 1021.3
20260507174524 16 1 3.2 9.7 0.00 0.00 0.00 26 1021.1
20260507174003 16 11 3.2 9.7 0.00 0.00 0.00 26 1021.3
20260507173503 16 19 3.2 9.7 0.00 0.00 0.00 28 1021.3
20260507173004 18 80 3.2 11.3 0.00 0.00 0.00 26 1021.5
20260507172503 17 118 4.8 11.3 0.00 0.00 0.00 27 1021.5
20260507172024 16 104 4.8 12.9 0.00 0.00 0.00 30 1021.7
20260507171503 16 51 4.8 12.9 0.00 0.00 0.00 30 1021.8
20260507171003 15 26 3.2 12.9 0.00 0.00 0.00 30 1021.9
20260507170503 16 49 3.2 12.9 0.00 0.00 0.00 29 1022.1
20260507170024 16 64 3.2 11.3 0.00 0.00 0.00 30 1022.1
20260507165524 16 34 3.2 11.3 0.00 0.00 0.00 31 1022.2
20260507165003 15 6 3.2 11.3 0.00 0.00 0.00 32 1021.9
20260507164503 14 19 4.8 12.9 0.00 0.00 0.00 31 1022.3
20260507164003 14 24 6.4 12.9 0.00 0.00 0.00 33 1022.2
20260507163503 13 18 6.4 12.9 0.00 0.00 0.00 35 1022.3
20260507163003 13 19 6.4 16.1 0.00 0.00 0.00 37 1022.4
20260507162503 13 22 6.4 16.1 0.00 0.00 0.00 37 1022.4
20260507162003 13 19 8.0 16.1 0.00 0.00 0.00 38 1022.4
20260507161503 13 19 8.0 16.1 0.00 0.00 0.00 38 1022.5
20260507161024 13 18 8.0 14.5 0.00 0.00 0.00 39 1022.5
20260507160503 13 12 6.4 14.5 0.00 0.00 0.00 40 1022.8
20260507160003 12 8 8.0 16.1 0.00 0.00 0.00 40 1022.5
20260507155503 12 8 8.0 16.1 0.00 0.00 0.00 40 1022.5
20260507155003 12 9 8.0 16.1 0.00 0.00 0.00 42 1022.5
20260507154503 12 4 6.4 16.1 0.00 0.00 0.00 40 1022.5
20260507154003 12 4 6.4 16.1 0.00 0.00 0.00 41 1022.5
20260507153504 12 5 8.0 16.1 0.00 0.00 0.00 43 1022.8
20260507153003 11 4 8.0 16.1 0.00 0.00 0.00 44 1023.1
20260507152503 11 6 8.0 16.1 0.00 0.00 0.00 45 1022.8
20260507152003 11 7 8.0 16.1 0.00 0.00 0.00 45 1023.0
20260507151503 11 8 8.0 17.7 0.00 0.00 0.00 48 1022.6
20260507151003 10 8 8.0 17.7 0.00 0.00 0.00 48 1022.9
20260507150504 10 6 8.0 17.7 0.00 0.00 0.00 50 1022.9
20260507150024 10 5 8.0 16.1 0.00 0.00 0.00 53 1022.9
20260507145503 10 8 8.0 16.1 0.00 0.00 0.00 52 1023.1
20260507145003 10 8 9.7 24.1 0.00 0.00 0.00 54 1023.2
20260507144503 9 7 9.7 24.1 0.00 0.00 0.00 55 1023.1
20260507144003 10 5 9.7 22.5 0.00 0.00 0.00 54 1023.0
20260507143503 9 7 11.3 24.1 0.00 0.00 0.00 56 1022.9
20260507143003 9 4 11.3 24.1 0.00 0.00 0.00 56 1023.2
20260507142503 9 2 9.7 22.5 0.00 0.00 0.00 57 1023.0
20260507142003 9 8 9.7 24.1 0.00 0.00 0.00 55 1022.9
20260507141503 8 8 12.9 24.1 0.00 0.00 0.00 57 1023.1
20260507141003 8 7 12.9 27.4 0.00 0.00 0.00 58 1023.0
20260507140503 8 6 12.9 27.4 0.00 0.00 0.00 59 1023.0
20260507140003 8 7 12.9 27.4 0.00 0.00 0.00 59 1022.9
20260507135503 8 8 12.9 25.7 0.00 0.00 0.00 59 1023.0
20260507135003 8 7 12.9 25.7 0.00 0.00 0.00 60 1023.0
20260507134524 8 10 11.3 24.1 0.00 0.00 0.00 60 1022.9
20260507134003 7 9 11.3 25.7 0.00 0.00 0.00 59 1023.0
20260507133503 7 7 11.3 25.7 0.00 0.00 0.00 60 1023.1
20260507133024 7 8 11.3 20.9 0.00 0.00 0.00 60 1023.1
20260507132525 7 8 11.3 24.1 0.00 0.00 0.00 59 1022.9
20260507132003 7 7 11.3 24.1 0.00 0.00 0.00 60 1022.9
20260507131503 7 9 11.3 24.1 0.00 0.00 0.00 62 1022.9
20260507131003 7 6 11.3 24.1 0.00 0.00 0.00 63 1022.6
20260507130504 6 5 9.7 24.1 0.00 0.00 0.00 64 1022.8
20260507130004 6 6 9.7 24.1 0.00 0.00 0.00 64 1022.9
20260507125503 6 5 9.7 20.9 0.00 0.00 0.00 64 1022.9
20260507125003 6 4 9.7 20.9 0.00 0.00 0.00 64 1022.9
20260507124503 6 3 8.0 17.7 0.00 0.00 0.00 65 1022.9
20260507124024 6 1 6.4 14.5 0.00 0.00 0.00 67 1022.8
20260507123504 5 357 6.4 16.1 0.00 0.00 0.00 69 1022.8
20260507123003 5 357 6.4 16.1 0.00 0.00 0.00 68 1022.8
20260507122503 5 355 8.0 14.5 0.00 0.00 0.00 68 1022.6
20260507122024 5 353 8.0 14.5 0.00 0.00 0.00 68 1022.5
20260507121503 5 350 8.0 12.9 0.00 0.00 0.00 68 1022.4
20260507121003 4 346 6.4 12.9 0.00 0.00 0.00 67 1022.5
20260507120524 5 344 4.8 11.3 0.00 0.00 0.00 67 1022.3
20260507120004 5 343 3.2 9.7 0.00 0.00 0.00 66 1022.4
20260507115503 5 343 3.2 6.4 0.00 0.00 0.00 66 1022.5
20260507115003 5 343 3.2 6.4 0.00 0.00 0.00 65 1022.5
20260507114503 5 343 3.2 4.8 0.00 0.00 0.00 65 1022.3
20260507114003 5 343 1.6 4.8 0.00 0.00 0.00 64 1022.6
20260507113503 5 343 0.0 4.8 0.00 0.00 0.00 62 1022.2
20260507113004 5 342 3.2 9.7 0.00 0.00 0.00 62 1022.5
20260507112503 5 342 4.8 9.7 0.00 0.00 0.00 60 1022.6
20260507112003 5 341 4.8 9.7 0.00 0.00 0.00 59 1022.5
20260507111504 5 341 4.8 9.7 0.00 0.00 0.00 57 1022.5
20260507111004 4 342 4.8 6.4 0.00 0.00 0.00 56 1022.4
20260507110503 4 343 4.8 9.7 0.00 0.00 0.00 54 1022.4
20260507110004 4 343 4.8 9.7 0.00 0.00 0.00 52 1022.5
20260507105503 4 343 4.8 9.7 0.00 0.00 0.00 50 1022.4
20260507105003 5 343 4.8 6.4 0.00 0.00 0.00 49 1022.4
20260507104524 5 344 3.2 6.4 0.00 0.00 0.00 47 1022.4
20260507104024 5 347 3.2 9.7 0.00 0.00 0.00 46 1022.5
20260507103524 5 348 4.8 9.7 0.00 0.00 0.00 45 1022.4
20260507103003 5 349 6.4 12.9 0.00 0.00 0.00 43 1022.4
20260507102503 5 350 6.4 12.9 0.00 0.00 0.00 42 1022.4
20260507102003 5 349 4.8 9.7 0.00 0.00 0.00 41 1022.5
20260507101503 5 350 4.8 12.9 0.00 0.00 0.00 40 1022.3
20260507101003 5 351 8.0 16.1 0.00 0.00 0.00 40 1022.4
20260507100503 5 349 9.7 16.1 0.00 0.00 0.00 40 1022.2
20260507100024 5 347 9.7 14.5 0.00 0.00 0.00 41 1022.1
20260507095503 5 345 8.0 12.9 0.00 0.00 0.00 40 1022.3
20260507095003 5 347 8.0 11.3 0.00 0.00 0.00 41 1022.2
20260507094503 5 350 6.4 11.3 0.00 0.00 0.00 40 1022.1
20260507094025 5 352 4.8 9.7 0.00 0.00 0.00 40 1022.2
20260507093503 6 353 4.8 9.7 0.00 0.00 0.00 39 1022.2
20260507093003 6 353 3.2 9.7 0.00 0.00 0.00 38 1022.2
20260507092504 6 353 4.8 12.9 0.00 0.00 0.00 38 1022.1
20260507092004 6 353 6.4 12.9 0.00 0.00 0.00 38 1022.1
20260507091503 6 353 8.0 12.9 0.00 0.00 0.00 37 1021.9
20260507091003 7 355 8.0 12.9 0.00 0.00 0.00 37 1022.1
20260507090503 7 359 6.4 12.9 0.00 0.00 0.00 36 1022.1
20260507090004 7 3 6.4 11.3 0.00 0.00 0.00 36 1022.2
20260507085503 7 5 4.8 9.7 0.00 0.00 0.00 36 1021.9
20260507085003 6 5 3.2 6.4 0.00 0.00 0.00 38 1022.3
20260507084524 6 6 3.2 6.4 0.00 0.00 0.00 37 1022.3
20260507084003 7 7 4.8 9.7 0.00 0.00 0.00 36 1021.8
20260507083503 7 9 3.2 9.7 0.00 0.00 0.00 35 1021.8
20260507083004 7 10 3.2 4.8 0.00 0.00 0.00 34 1021.9
20260507082503 8 12 3.2 6.4 0.00 0.00 0.00 33 1021.8
20260507082024 7 20 3.2 9.7 0.00 0.00 0.00 33 1021.9
20260507081503 7 27 4.8 11.3 0.00 0.00 0.00 34 1022.1
20260507081003 7 17 4.8 11.3 0.00 0.00 0.00 35 1021.7
20260507080504 7 339 8.0 14.5 0.00 0.00 0.00 34 1021.5
20260507080004 8 334 11.3 14.5 0.00 0.00 0.00 33 1021.2
20260507075503 8 334 12.9 16.1 0.00 0.00 0.00 33 1021.3
20260507075003 8 330 12.9 16.1 0.00 0.00 0.00 33 1021.5
20260507074503 8 326 12.9 16.1 0.00 0.00 0.00 33 1021.3
20260507074003 8 327 12.9 16.1 0.00 0.00 0.00 33 1021.1
20260507073503 8 329 12.9 16.1 0.00 0.00 0.00 33 1021.5
20260507073024 8 333 12.9 16.1 0.00 0.00 0.00 32 1021.1
20260507072524 8 336 11.3 14.5 0.00 0.00 0.00 33 1021.3
20260507072003 7 336 9.7 12.9 0.00 0.00 0.00 35 1021.0
20260507071504 7 338 9.7 12.9 0.00 0.00 0.00 35 1021.1
20260507071003 8 339 11.3 12.9 0.00 0.00 0.00 35 1021.2
20260507070524 8 340 11.3 14.5 0.00 0.00 0.00 35 1021.2
20260507070004 8 339 12.9 16.1 0.00 0.00 0.00 35 1021.1